SWA1441 KMKE-KMDW

Flight info

Callsign SWA1441
Flight time 0h 19m
Altitude 11000
Route STERE
Aircraft B738/M-VGDW/C

Departure

Time 2026-04-22 02:44
Airport General Mitchell International Airport (KMKE)

Arrival

Time 2026-04-22 03:03
Airport Chicago Midway International Airport (KMDW)
Time Latitude Longitude Altitude Speed Heading
2026-04-22 02:34 42.95127 -87.90067 681 ft 0 kts 195°
2026-04-22 02:39 42.95144 -87.90061 679 ft 4 kts 195°
2026-04-22 02:39 42.95172 -87.90051 681 ft 4 kts 194°
2026-04-22 02:39 42.95201 -87.90045 683 ft 4 kts 160°
2026-04-22 02:40 42.95212 -87.90053 679 ft 0 kts 137°
2026-04-22 02:41 42.95202 -87.90039 683 ft 8 kts 137°
2026-04-22 02:41 42.95135 -87.89941 681 ft 19 kts 132°
2026-04-22 02:41 42.95052 -87.89811 687 ft 4 kts 118°
2026-04-22 02:42 42.95083 -87.89755 687 ft 15 kts 33°
2026-04-22 02:42 42.95198 -87.89675 684 ft 21 kts 26°
2026-04-22 02:42 42.95343 -87.89576 687 ft 25 kts 26°
2026-04-22 02:42 42.95515 -87.89494 687 ft 27 kts
2026-04-22 02:43 42.95702 -87.89461 687 ft 16 kts 10°
2026-04-22 02:43 42.95740 -87.89338 687 ft 16 kts 109°
2026-04-22 02:43 42.95566 -87.89337 683 ft 53 kts 187°
2026-04-22 02:43 42.94964 -87.89437 685 ft 119 kts 187°
2026-04-22 02:44 42.93950 -87.89620 718 ft 170 kts 187°
2026-04-22 02:44 42.92764 -87.89821 1444 ft 165 kts 181°
2026-04-22 02:44 42.91604 -87.89306 1860 ft 198 kts 146°
2026-04-22 02:44 42.90507 -87.88010 2239 ft 220 kts 139°
2026-04-22 02:45 42.89336 -87.86523 2568 ft 238 kts 140°
2026-04-22 02:45 42.88086 -87.84975 3106 ft 247 kts 140°
2026-04-22 02:45 42.86779 -87.83383 3695 ft 256 kts 140°
2026-04-22 02:45 42.85342 -87.81766 4156 ft 276 kts 142°
2026-04-22 02:46 42.83820 -87.80107 5021 ft 282 kts 141°
2026-04-22 02:46 42.82275 -87.78431 5923 ft 286 kts 142°
2026-04-22 02:46 42.80725 -87.76747 6743 ft 292 kts 142°
2026-04-22 02:46 42.79126 -87.75003 7595 ft 296 kts 142°
2026-04-22 02:47 42.77511 -87.73237 8445 ft 300 kts 142°
2026-04-22 02:47 42.75866 -87.71438 9295 ft 305 kts 142°
2026-04-22 02:47 42.74200 -87.69611 10123 ft 310 kts 142°
2026-04-22 02:47 42.72482 -87.67725 10561 ft 329 kts 142°
2026-04-22 02:48 42.70617 -87.65710 10748 ft 354 kts 146°
2026-04-22 02:48 42.68324 -87.64303 11020 ft 370 kts 169°
2026-04-22 02:48 42.65710 -87.63919 11030 ft 386 kts 180°
2026-04-22 02:48 42.63027 -87.63784 11014 ft 386 kts 180°
2026-04-22 02:49 42.60363 -87.63651 11002 ft 387 kts 180°
2026-04-22 02:49 42.57674 -87.63487 10984 ft 387 kts 179°
2026-04-22 02:49 42.54987 -87.63302 10990 ft 386 kts 179°
2026-04-22 02:49 42.52292 -87.63104 10995 ft 386 kts 179°
2026-04-22 02:50 42.49609 -87.62889 11001 ft 387 kts 179°
2026-04-22 02:50 42.46917 -87.62668 11005 ft 387 kts 179°
2026-04-22 02:50 42.44261 -87.62451 10984 ft 374 kts 179°
2026-04-22 02:50 42.41731 -87.62377 10982 ft 354 kts 188°
2026-04-22 02:51 42.39386 -87.62837 10945 ft 337 kts 193°
2026-04-22 02:51 42.37111 -87.63411 10716 ft 327 kts 193°
2026-04-22 02:51 42.34902 -87.63938 10468 ft 316 kts 193°
2026-04-22 02:51 42.32740 -87.64201 10219 ft 310 kts 174°
2026-04-22 02:52 42.30723 -87.63270 9916 ft 305 kts 154°
2026-04-22 02:52 42.28840 -87.61982 9415 ft 303 kts 154°
2026-04-22 02:52 42.26962 -87.60691 8924 ft 302 kts 154°
2026-04-22 02:52 42.25099 -87.59415 8434 ft 299 kts 154°
2026-04-22 02:53 42.23246 -87.58153 7982 ft 296 kts 154°
2026-04-22 02:53 42.21421 -87.56918 7606 ft 298 kts 154°
2026-04-22 02:53 42.19577 -87.55674 7367 ft 294 kts 154°
2026-04-22 02:53 42.17753 -87.54448 7117 ft 292 kts 154°
2026-04-22 02:54 42.15935 -87.53228 6854 ft 290 kts 154°
2026-04-22 02:54 42.14138 -87.52025 6599 ft 287 kts 154°
2026-04-22 02:54 42.12357 -87.50833 6239 ft 285 kts 154°
2026-04-22 02:54 42.10574 -87.49641 5906 ft 286 kts 154°
2026-04-22 02:55 42.08744 -87.48737 5629 ft 282 kts 171°
2026-04-22 02:55 42.06830 -87.48360 5302 ft 275 kts 174°
2026-04-22 02:55 42.04932 -87.48019 4817 ft 275 kts 174°
2026-04-22 02:55 42.03043 -87.47661 4379 ft 273 kts 174°
2026-04-22 02:56 42.01171 -87.47285 3917 ft 272 kts 174°
2026-04-22 02:56 41.99300 -87.46897 3444 ft 271 kts 174°
2026-04-22 02:56 41.97434 -87.46500 3090 ft 270 kts 174°
2026-04-22 02:56 41.95562 -87.46096 3056 ft 274 kts 174°
2026-04-22 02:57 41.93679 -87.45687 3017 ft 273 kts 174°
2026-04-22 02:57 41.91810 -87.45279 3012 ft 272 kts 174°
2026-04-22 02:57 41.89973 -87.44879 3002 ft 266 kts 174°
2026-04-22 02:57 41.88197 -87.44679 2983 ft 246 kts 193°
2026-04-22 02:58 41.86708 -87.45514 3019 ft 223 kts 222°
2026-04-22 02:58 41.85729 -87.46969 3010 ft 201 kts 242°
2026-04-22 02:58 41.85172 -87.48603 3008 ft 188 kts 257°
2026-04-22 02:58 41.85030 -87.50318 3023 ft 185 kts 272°
2026-04-22 02:59 41.85027 -87.52055 3024 ft 186 kts 271°
2026-04-22 02:59 41.85021 -87.53732 3015 ft 179 kts 271°
2026-04-22 02:59 41.85003 -87.55376 3005 ft 174 kts 269°
2026-04-22 02:59 41.84934 -87.56991 3005 ft 173 kts 268°
2026-04-22 03:00 41.84860 -87.58597 3012 ft 173 kts 268°
2026-04-22 03:00 41.84787 -87.60210 3021 ft 173 kts 268°
2026-04-22 03:00 41.84707 -87.61850 2857 ft 179 kts 268°
2026-04-22 03:00 41.84624 -87.63512 2620 ft 177 kts 268°
2026-04-22 03:01 41.84462 -87.65108 2389 ft 169 kts 255°
2026-04-22 03:01 41.84042 -87.66502 2205 ft 153 kts 250°
2026-04-22 03:01 41.83624 -87.67771 2018 ft 149 kts 249°
2026-04-22 03:01 41.83135 -87.68986 1804 ft 150 kts 242°
2026-04-22 03:02 41.82509 -87.70090 1596 ft 148 kts 232°
2026-04-22 03:02 41.81781 -87.71062 1409 ft 148 kts 226°
2026-04-22 03:02 41.81024 -87.72012 1206 ft 150 kts 224°
2026-04-22 03:02 41.80256 -87.72970 999 ft 150 kts 224°
2026-04-22 03:03 41.79502 -87.73917 779 ft 146 kts 224°
2026-04-22 03:03 41.78789 -87.74828 630 ft 132 kts 223°
2026-04-22 03:03 41.78290 -87.75459 632 ft 28 kts 223°
2026-04-22 03:03 41.78198 -87.75473 629 ft 16 kts 111°
2026-04-22 03:04 41.78201 -87.75379 637 ft 15 kts 65°
2026-04-22 03:04 41.78329 -87.75206 632 ft 28 kts 43°
2026-04-22 03:04 41.78488 -87.75005 633 ft 32 kts 43°
2026-04-22 03:04 41.78619 -87.74818 631 ft 20 kts 83°
2026-04-22 03:05 41.78549 -87.74682 633 ft 15 kts 89°
2026-04-22 03:05 41.78590 -87.74627 628 ft 13 kts 36°
2026-04-22 03:05 41.78609 -87.74608 628 ft 1 kts 36°